Showing default

COSMOS 2544 (GLONASS), 44850

Orbit data source: Space-Track

COSMOS 2544 (GLONASS), 44850 is a Commonwealth of Independent States-origin payload satellite in MEO that was launched on Wed, 11 Dec 2019 UTC via a SOYUZ-2-1B launch vehicle from the Plesetsk Missile And Space Complex (PKMTR). Payload-class satellites include a variety of spacecraft equipped with specific instruments for various scientific and technological missions. These include communications satellites like Starlink; space stations such as the ISS; scientific satellites like the Hubble; Earth observation satellites from companies like Planet Labs, Umbra, and HawkEye 360; GPS; miniature CubeSats for education and research; and military/defense satellites.

Loading next visibility...
Identifier
44850, 2019-088A
Orbit
MEO
Country
Flag of CISCIS
Related business
Manufacturer
Resehetnev ISS
Mission
Operational Defense Navigation
Bus & Motor
URAGAN, Unknown motor
Mass
1,450 kg wet, ~1,200 kg dry
Launch date (UTC)
2019-12-11 (7 years ago)
Launch vehicle
SOYUZ-2-1B
Launch site
Plesetsk Missile And Space Complex (PKMTR)
Object type
Payload
Rocket body
Debris
Shape & HBR
Cyl + 1 Ant + 2 Pan, 2.1 m
Radar Cross Section
8.467 m², Large (>1 m²)

Expand to show TLE details & history
Last TLE update: 4 days ago

TLE from 4 days ago
0 COSMOS 2544 (GLONASS)
1 44850U 19088A   26253.90393446  .00000015  00000-0  00000-0 0  9999
2 44850  65.6173  70.8727 0011883 245.7348 114.1821  2.13102659 52549
Epoch: 2026-09-10T21:41Z
TLE epoch observation values (Epoch: 2026-09-10T21:41:39.937Z)
Latitude
-0.00005°
Longitude
115.5114°
Altitude
19,142.806 km
Speed
3.951 km/s
True Right ascension
04h 43m 27s
True Declination
0° 00' 00"
Sunlit
Object was in daylight at epoch
Visualization orbit readout
Latitude
Unknown
Longitude
Unknown
Altitude
Unknown
Speed
Unknown
Apparent Right ascension
Unknown
Apparent Declination
Unknown
Sunlit
N/A
Visualization observer readout
Local Sidereal Time
03:09:53
Azimuth
Unknown
Elevation
Unknown
Doppler factor
Unknown
Orbital elements
Apogee altitude
19,159.739 km
Perigee altitude
19,099.118 km
Semi-major axis
25,507.566 km
Eccentricity
0.00119
Inclination
65.6173°
RAAN
70.8727°
Arg. of periapsis
245.7348°
True anomaly
114.30624°
Mean anomaly
114.1821°
Eccentric anomaly
114.24418°
Mean motion
0.53277 °/min
Orbital period
675.71 mins
BSTAR
0
Loading maneuver chart data...
Computing Atmospheric mass density...
Loading historical data...
Loading historical data...
Loading historical data...
Loading historical data...
Loading historical data...
Loading historical data...
Loading historical data...
Other satellites on launch #88 in the year 2019 (2019-12-11 UTC)

Documentation

Showing up to 5 results
|